Year,Month,Day,Hour,Minute,Value (Times are PST for temperature in C)
2017,08,24,09,19,15.50
2017,08,24,09,20,15.50
2017,08,24,09,21,15.50
2017,08,24,09,22,15.50
2017,08,24,09,23,15.50
2017,08,24,09,24,15.60
2017,08,24,09,25,15.60
2017,08,24,09,26,15.60
2017,08,24,09,27,15.60
2017,08,24,09,28,15.70
2017,08,24,09,29,15.70
2017,08,24,09,30,15.70
2017,08,24,09,31,15.70
2017,08,24,09,32,15.80
2017,08,24,09,33,15.80
2017,08,24,09,34,15.80
2017,08,24,09,35,15.80
2017,08,24,09,36,15.80
2017,08,24,09,37,15.80
2017,08,24,09,38,15.90
2017,08,24,09,39,15.90
2017,08,24,09,40,15.90
2017,08,24,09,41,15.90
2017,08,24,09,42,16.00
2017,08,24,09,43,16.10
2017,08,24,09,44,16.10
2017,08,24,09,45,16.10
2017,08,24,09,46,16.10
2017,08,24,09,47,16.10
2017,08,24,09,48,16.10
2017,08,24,09,49,16.10
2017,08,24,09,50,16.10
2017,08,24,09,51,16.10
2017,08,24,09,52,16.10
2017,08,24,09,53,16.10
2017,08,24,09,54,16.10
2017,08,24,09,55,16.20
2017,08,24,09,56,16.20
2017,08,24,09,57,16.30
2017,08,24,09,58,16.30
2017,08,24,09,59,16.30
2017,08,24,10,00,16.30
2017,08,24,10,01,16.40
2017,08,24,10,02,16.40
2017,08,24,10,03,16.40
2017,08,24,10,04,16.40
2017,08,24,10,05,16.40
2017,08,24,10,06,16.40
2017,08,24,10,07,16.50
2017,08,24,10,08,16.60
2017,08,24,10,09,16.60
2017,08,24,10,10,16.60
2017,08,24,10,11,16.60
2017,08,24,10,12,16.60
2017,08,24,10,13,16.60
2017,08,24,10,14,16.60
2017,08,24,10,15,16.60
2017,08,24,10,16,16.60
2017,08,24,10,17,16.70
2017,08,24,10,18,16.70
2017,08,24,10,19,16.70
2017,08,24,10,20,16.70
2017,08,24,10,21,16.70
2017,08,24,10,22,16.70
2017,08,24,10,23,16.70
2017,08,24,10,24,16.70
2017,08,24,10,25,16.70
2017,08,24,10,26,16.70
2017,08,24,10,27,16.70
2017,08,24,10,28,16.70
2017,08,24,10,29,16.70
2017,08,24,10,30,16.70
2017,08,24,10,31,16.70
2017,08,24,10,32,16.70
2017,08,24,10,33,16.70
2017,08,24,10,34,16.70
2017,08,24,10,35,16.80
2017,08,24,10,36,16.80
2017,08,24,10,37,16.90
2017,08,24,10,38,16.90
2017,08,24,10,39,17.00
2017,08,24,10,40,17.00
2017,08,24,10,41,17.10
2017,08,24,10,42,17.10
2017,08,24,10,43,17.10
2017,08,24,10,44,17.10
2017,08,24,10,45,17.10
2017,08,24,10,46,17.10
2017,08,24,10,47,17.10
2017,08,24,10,48,17.10
2017,08,24,10,49,17.10
2017,08,24,10,50,17.10
2017,08,24,10,51,17.10
2017,08,24,10,52,17.10
2017,08,24,10,53,17.20
2017,08,24,10,54,17.20
2017,08,24,10,55,17.30
2017,08,24,10,56,17.30
2017,08,24,10,57,17.30
2017,08,24,10,58,17.30
2017,08,24,10,59,17.30
2017,08,24,11,00,17.30
2017,08,24,11,01,17.30
2017,08,24,11,02,17.30
2017,08,24,11,03,17.30
2017,08,24,11,04,17.30
2017,08,24,11,05,17.30
2017,08,24,11,06,17.30
2017,08,24,11,07,17.30
2017,08,24,11,08,17.40
2017,08,24,11,09,17.40
2017,08,24,11,10,17.50
2017,08,24,11,11,17.50
2017,08,24,11,12,17.60
2017,08,24,11,13,17.70
2017,08,24,11,14,17.70
2017,08,24,11,15,17.80
2017,08,24,11,16,17.90
2017,08,24,11,17,17.90
2017,08,24,11,18,18.00
2017,08,24,11,19,18.10
2017,08,24,11,20,18.20
2017,08,24,11,21,18.20
2017,08,24,11,22,18.20
2017,08,24,11,23,18.10
2017,08,24,11,24,18.10
2017,08,24,11,25,18.10
2017,08,24,11,26,18.20
2017,08,24,11,27,18.30
2017,08,24,11,28,18.30
2017,08,24,11,29,18.30
2017,08,24,11,30,18.40
2017,08,24,11,31,18.40
2017,08,24,11,32,18.40
2017,08,24,11,33,18.40
2017,08,24,11,34,18.50
2017,08,24,11,35,18.50
2017,08,24,11,36,18.50
2017,08,24,11,37,18.50
2017,08,24,11,38,18.50
2017,08,24,11,39,18.50
2017,08,24,11,40,18.50
2017,08,24,11,41,18.60
2017,08,24,11,42,18.60
2017,08,24,11,43,18.70
2017,08,24,11,44,18.80
2017,08,24,11,45,18.80
2017,08,24,11,46,18.80
2017,08,24,11,47,18.80
2017,08,24,11,48,18.80
2017,08,24,11,49,18.90
2017,08,24,11,50,18.90
2017,08,24,11,51,18.90
2017,08,24,11,52,18.90
2017,08,24,11,53,18.90
2017,08,24,11,54,18.90
2017,08,24,11,55,18.80
2017,08,24,11,56,18.80
2017,08,24,11,57,18.80
2017,08,24,11,58,18.80
2017,08,24,11,59,18.80
2017,08,24,12,00,18.80
2017,08,24,12,01,18.80
2017,08,24,12,02,18.80
2017,08,24,12,03,18.90
2017,08,24,12,04,18.90
2017,08,24,12,05,19.00
2017,08,24,12,06,19.10
2017,08,24,12,07,19.10
2017,08,24,12,08,19.10
2017,08,24,12,09,19.10
2017,08,24,12,10,19.10
2017,08,24,12,11,19.10
2017,08,24,12,12,19.10
2017,08,24,12,13,19.10
2017,08,24,12,14,19.00
2017,08,24,12,15,19.00
2017,08,24,12,16,19.10
2017,08,24,12,17,19.10
2017,08,24,12,18,19.20
2017,08,24,12,19,19.20
2017,08,24,12,20,19.40
2017,08,24,12,21,19.40
2017,08,24,12,22,19.60
2017,08,24,12,23,19.60
2017,08,24,12,24,19.80
2017,08,24,12,25,19.90
2017,08,24,12,26,19.90
2017,08,24,12,27,20.00
2017,08,24,12,28,20.10
2017,08,24,12,29,20.20
2017,08,24,12,30,20.30
2017,08,24,12,31,20.30
2017,08,24,12,32,20.20
2017,08,24,12,33,20.20
2017,08,24,12,34,20.10
2017,08,24,12,35,20.10
2017,08,24,12,36,19.90
2017,08,24,12,37,19.90
2017,08,24,12,38,19.80
2017,08,24,12,39,19.70
2017,08,24,12,40,19.50
2017,08,24,12,41,19.30
2017,08,24,12,42,19.20
2017,08,24,12,43,19.20
2017,08,24,12,44,19.30
2017,08,24,12,45,19.30
2017,08,24,12,46,19.30
2017,08,24,12,47,19.30
2017,08,24,12,48,19.30
2017,08,24,12,49,19.20
2017,08,24,12,50,19.10
2017,08,24,12,51,19.10
2017,08,24,12,52,19.10
2017,08,24,12,53,19.10
2017,08,24,12,54,19.20
2017,08,24,12,55,19.30
2017,08,24,12,56,19.30
2017,08,24,12,57,19.40
2017,08,24,12,58,19.40
2017,08,24,12,59,19.50
2017,08,24,13,00,19.50
2017,08,24,13,01,19.50
2017,08,24,13,02,19.50
2017,08,24,13,03,19.50
2017,08,24,13,04,19.60
2017,08,24,13,05,19.60
2017,08,24,13,06,19.60
2017,08,24,13,07,19.60
2017,08,24,13,08,19.50
2017,08,24,13,09,19.50
2017,08,24,13,10,19.50
2017,08,24,13,11,19.60
2017,08,24,13,12,19.60
2017,08,24,13,13,19.60
2017,08,24,13,14,19.60
2017,08,24,13,15,19.60
2017,08,24,13,16,19.60
2017,08,24,13,17,19.60
2017,08,24,13,18,19.60
2017,08,24,13,19,19.60
2017,08,24,13,20,19.70
2017,08,24,13,21,19.70
2017,08,24,13,22,19.70
2017,08,24,13,23,19.60
2017,08,24,13,24,19.60
2017,08,24,13,25,19.70
2017,08,24,13,26,19.80
2017,08,24,13,27,19.80
2017,08,24,13,28,19.80
2017,08,24,13,29,19.90
2017,08,24,13,30,19.90
2017,08,24,13,31,19.90
2017,08,24,13,32,19.90
2017,08,24,13,33,19.90
2017,08,24,13,34,19.90
2017,08,24,13,35,19.90
2017,08,24,13,36,19.90
2017,08,24,13,37,19.90
2017,08,24,13,38,19.90
2017,08,24,13,39,19.70
2017,08,24,13,40,19.50
2017,08,24,13,41,19.40
2017,08,24,13,42,19.40
2017,08,24,13,43,19.30
2017,08,24,13,44,19.30
2017,08,24,13,45,19.30
2017,08,24,13,46,19.40
2017,08,24,13,47,19.50
2017,08,24,13,48,19.60
2017,08,24,13,49,19.70
2017,08,24,13,50,19.80
2017,08,24,13,51,19.90
2017,08,24,13,52,20.00
2017,08,24,13,53,20.10
2017,08,24,13,54,20.20
2017,08,24,13,55,20.20
2017,08,24,13,56,20.20
2017,08,24,13,57,20.20
2017,08,24,13,58,20.20
2017,08,24,13,59,20.30
2017,08,24,14,00,20.30
2017,08,24,14,01,20.40
2017,08,24,14,02,20.40
2017,08,24,14,03,20.50
2017,08,24,14,04,20.50
2017,08,24,14,05,20.50
2017,08,24,14,06,20.60
2017,08,24,14,07,20.60
2017,08,24,14,08,20.60
2017,08,24,14,09,20.60
2017,08,24,14,10,20.60
2017,08,24,14,11,20.60
2017,08,24,14,12,20.50
2017,08,24,14,13,20.50
2017,08,24,14,14,20.40
2017,08,24,14,15,20.30
2017,08,24,14,16,20.20
2017,08,24,14,17,20.20
2017,08,24,14,18,20.20
2017,08,24,14,19,20.20
2017,08,24,14,20,20.20
2017,08,24,14,21,20.20
2017,08,24,14,22,20.20
2017,08,24,14,23,20.20
2017,08,24,14,24,20.20
2017,08,24,14,25,20.20
2017,08,24,14,26,20.20
2017,08,24,14,27,20.20
2017,08,24,14,28,20.20
2017,08,24,14,29,20.20
2017,08,24,14,30,20.20
2017,08,24,14,31,20.20
2017,08,24,14,32,20.20
2017,08,24,14,33,20.20
2017,08,24,14,34,20.20
2017,08,24,14,35,20.20
2017,08,24,14,36,20.20
2017,08,24,14,37,20.10
2017,08,24,14,38,20.00
2017,08,24,14,39,19.90
2017,08,24,14,40,19.90
2017,08,24,14,41,19.90
2017,08,24,14,42,19.90
2017,08,24,14,43,19.90
2017,08,24,14,44,19.90
2017,08,24,14,45,19.90
2017,08,24,14,46,19.90
2017,08,24,14,47,19.80
2017,08,24,14,48,19.80
2017,08,24,14,49,19.80
2017,08,24,14,50,19.80
2017,08,24,14,51,19.90
2017,08,24,14,52,19.90
2017,08,24,14,53,19.90
2017,08,24,14,54,19.90
2017,08,24,14,55,19.90
2017,08,24,14,56,19.90
2017,08,24,14,57,19.90
2017,08,24,14,58,19.90
2017,08,24,14,59,19.90
2017,08,24,15,00,19.90
2017,08,24,15,01,19.80
2017,08,24,15,02,19.80
2017,08,24,15,03,19.70
2017,08,24,15,04,19.70
2017,08,24,15,05,19.70
2017,08,24,15,06,19.70
2017,08,24,15,07,19.80
2017,08,24,15,08,19.90
2017,08,24,15,09,19.90
2017,08,24,15,10,19.80
2017,08,24,15,11,19.90
2017,08,24,15,12,19.90
2017,08,24,15,13,19.90
2017,08,24,15,14,19.90
2017,08,24,15,15,19.90
2017,08,24,15,16,19.90
2017,08,24,15,17,19.90
2017,08,24,15,18,19.90
2017,08,24,15,19,19.90
2017,08,24,15,20,19.90
2017,08,24,15,21,20.10
2017,08,24,15,22,20.10
2017,08,24,15,23,20.10
2017,08,24,15,24,20.10
2017,08,24,15,25,20.10
2017,08,24,15,26,20.10
2017,08,24,15,27,20.10
2017,08,24,15,28,20.10
2017,08,24,15,29,20.10
2017,08,24,15,30,20.10
2017,08,24,15,31,20.10
2017,08,24,15,32,20.10
2017,08,24,15,33,20.10
2017,08,24,15,34,20.10
2017,08,24,15,35,20.10
2017,08,24,15,36,20.10
2017,08,24,15,37,20.10
2017,08,24,15,38,20.10
2017,08,24,15,39,20.10
2017,08,24,15,40,20.00
2017,08,24,15,41,19.90
2017,08,24,15,42,19.90
2017,08,24,15,43,19.90
2017,08,24,15,44,19.90
2017,08,24,15,45,19.90
2017,08,24,15,46,19.90
2017,08,24,15,47,20.00
2017,08,24,15,48,20.10
2017,08,24,15,49,20.00
2017,08,24,15,50,19.90
2017,08,24,15,51,19.90
2017,08,24,15,52,19.90
2017,08,24,15,53,20.00
2017,08,24,15,54,20.10
2017,08,24,15,55,20.10
2017,08,24,15,56,20.20
2017,08,24,15,57,20.20
2017,08,24,15,58,20.20
2017,08,24,15,59,20.20
2017,08,24,16,00,20.20
2017,08,24,16,01,20.20
2017,08,24,16,02,20.20
2017,08,24,16,03,20.10
2017,08,24,16,04,20.10
2017,08,24,16,05,20.00
2017,08,24,16,06,19.90
2017,08,24,16,07,19.90
2017,08,24,16,08,19.90
2017,08,24,16,09,19.90
2017,08,24,16,10,19.90
2017,08,24,16,11,19.80
2017,08,24,16,12,19.80
2017,08,24,16,13,19.80
2017,08,24,16,14,19.80
2017,08,24,16,15,19.70
2017,08,24,16,16,19.70
2017,08,24,16,17,19.70
2017,08,24,16,18,19.70
2017,08,24,16,19,19.80
2017,08,24,16,20,19.80
2017,08,24,16,21,19.80
2017,08,24,16,22,19.80
2017,08,24,16,23,19.80
2017,08,24,16,24,19.80
2017,08,24,16,25,19.80
2017,08,24,16,26,19.80
2017,08,24,16,27,19.70
2017,08,24,16,28,19.70
2017,08,24,16,29,19.70
2017,08,24,16,30,19.60
2017,08,24,16,31,19.60
2017,08,24,16,32,19.60
2017,08,24,16,33,19.60
2017,08,24,16,34,19.60
2017,08,24,16,35,19.60
2017,08,24,16,36,19.60
2017,08,24,16,37,19.70
2017,08,24,16,38,19.70
2017,08,24,16,39,19.80
2017,08,24,16,40,19.90
2017,08,24,16,41,19.90
2017,08,24,16,42,20.00
2017,08,24,16,43,20.10
2017,08,24,16,44,20.10
2017,08,24,16,45,20.10
2017,08,24,16,46,20.10
2017,08,24,16,47,20.10
2017,08,24,16,48,20.10
2017,08,24,16,49,20.10
2017,08,24,16,50,20.10
2017,08,24,16,51,20.10
2017,08,24,16,52,20.10
2017,08,24,16,53,20.10
2017,08,24,16,54,20.10
2017,08,24,16,55,20.10
2017,08,24,16,56,20.20
2017,08,24,16,57,20.20
2017,08,24,16,58,20.20
2017,08,24,16,59,20.20
2017,08,24,17,00,20.20
2017,08,24,17,01,20.20
2017,08,24,17,02,20.30
2017,08,24,17,03,20.30
2017,08,24,17,04,20.30
2017,08,24,17,05,20.30
2017,08,24,17,06,20.40
2017,08,24,17,07,20.40
2017,08,24,17,08,20.30
2017,08,24,17,09,20.30
2017,08,24,17,10,20.20
2017,08,24,17,11,20.20
2017,08,24,17,12,20.20
2017,08,24,17,13,20.10
2017,08,24,17,14,20.10
2017,08,24,17,15,20.00
2017,08,24,17,16,19.90
2017,08,24,17,17,19.90
2017,08,24,17,18,19.90
2017,08,24,17,19,19.90
2017,08,24,17,20,19.90
2017,08,24,17,21,19.90
2017,08,24,17,22,19.90
2017,08,24,17,23,19.90
2017,08,24,17,24,19.90
2017,08,24,17,25,19.90
2017,08,24,17,26,19.90
2017,08,24,17,27,19.90
2017,08,24,17,28,20.00
2017,08,24,17,29,20.10
2017,08,24,17,30,20.20
2017,08,24,17,31,20.20
2017,08,24,17,32,20.30
2017,08,24,17,33,20.40
2017,08,24,17,34,20.50
2017,08,24,17,35,20.50
2017,08,24,17,36,20.60
2017,08,24,17,37,20.70
2017,08,24,17,38,20.70
2017,08,24,17,39,20.70
2017,08,24,17,40,20.80
2017,08,24,17,41,20.80
2017,08,24,17,42,20.80
2017,08,24,17,43,20.80
2017,08,24,17,44,20.70
2017,08,24,17,45,20.70
2017,08,24,17,46,20.60
2017,08,24,17,47,20.50
2017,08,24,17,48,20.50
2017,08,24,17,49,20.40
2017,08,24,17,50,20.30
2017,08,24,17,51,20.20
2017,08,24,17,52,20.20
2017,08,24,17,53,20.10
2017,08,24,17,54,20.00
2017,08,24,17,55,19.90
2017,08,24,17,56,19.90
2017,08,24,17,57,19.90
2017,08,24,17,58,19.80
2017,08,24,17,59,19.80
2017,08,24,18,00,19.80
2017,08,24,18,01,19.80
2017,08,24,18,02,19.70
2017,08,24,18,03,19.70
2017,08,24,18,04,19.70
2017,08,24,18,05,19.60
2017,08,24,18,06,19.60
2017,08,24,18,07,19.60
2017,08,24,18,08,19.60
2017,08,24,18,09,19.60
2017,08,24,18,10,19.60
2017,08,24,18,11,19.60
2017,08,24,18,12,19.60
2017,08,24,18,13,19.70
2017,08,24,18,14,19.70
2017,08,24,18,15,19.70
2017,08,24,18,16,19.70
2017,08,24,18,17,19.80
2017,08,24,18,18,19.80
2017,08,24,18,19,19.80
2017,08,24,18,20,19.80
2017,08,24,18,21,19.90
2017,08,24,18,22,19.90
2017,08,24,18,23,19.90
2017,08,24,18,24,19.90
2017,08,24,18,25,19.90
2017,08,24,18,26,19.90
2017,08,24,18,27,19.90
2017,08,24,18,28,19.80
2017,08,24,18,29,19.80
2017,08,24,18,30,19.80
2017,08,24,18,31,19.70
2017,08,24,18,32,19.70
2017,08,24,18,33,19.70
2017,08,24,18,34,19.80
2017,08,24,18,35,19.70
2017,08,24,18,36,19.70
2017,08,24,18,37,19.70
2017,08,24,18,38,19.70
2017,08,24,18,39,19.60
2017,08,24,18,40,19.50
2017,08,24,18,41,19.50
2017,08,24,18,42,19.50
2017,08,24,18,43,19.50
2017,08,24,18,44,19.50
2017,08,24,18,45,19.40
2017,08,24,18,46,19.40
2017,08,24,18,47,19.30
2017,08,24,18,48,19.30
2017,08,24,18,49,19.20
2017,08,24,18,50,19.10
2017,08,24,18,51,19.10
2017,08,24,18,52,19.10
2017,08,24,18,53,19.10
2017,08,24,18,54,19.00
2017,08,24,18,55,18.90
2017,08,24,18,56,19.00
2017,08,24,18,57,19.10
2017,08,24,18,58,19.10
2017,08,24,18,59,19.10
2017,08,24,19,00,19.10
2017,08,24,19,01,19.10
2017,08,24,19,02,19.10
2017,08,24,19,03,19.10
2017,08,24,19,04,19.10
2017,08,24,19,05,19.10
2017,08,24,19,06,19.10
2017,08,24,19,07,19.10
2017,08,24,19,08,19.10
2017,08,24,19,09,19.00
2017,08,24,19,10,18.90
2017,08,24,19,11,18.90
2017,08,24,19,12,18.90
2017,08,24,19,13,18.90
2017,08,24,19,14,18.90
2017,08,24,19,15,18.90
2017,08,24,19,16,18.90
2017,08,24,19,17,18.80
2017,08,24,19,18,18.80
2017,08,24,19,19,18.70
2017,08,24,19,20,18.70
2017,08,24,19,21,18.70
2017,08,24,19,22,18.70
2017,08,24,19,23,18.80
2017,08,24,19,24,18.80
2017,08,24,19,25,18.70
2017,08,24,19,26,18.70
2017,08,24,19,27,18.70
2017,08,24,19,28,18.80
2017,08,24,19,29,18.70
2017,08,24,19,30,18.70
2017,08,24,19,31,18.70
2017,08,24,19,32,18.70
2017,08,24,19,33,18.70
2017,08,24,19,34,18.70
2017,08,24,19,35,18.70
2017,08,24,19,36,18.60
2017,08,24,19,37,18.60
2017,08,24,19,38,18.60
2017,08,24,19,39,18.60
2017,08,24,19,40,18.60
2017,08,24,19,41,18.50
2017,08,24,19,42,18.50
2017,08,24,19,43,18.50
2017,08,24,19,44,18.40
2017,08,24,19,45,18.40
2017,08,24,19,46,18.40
2017,08,24,19,47,18.40
2017,08,24,19,48,18.40
2017,08,24,19,49,18.30
2017,08,24,19,50,18.20
2017,08,24,19,51,18.20
2017,08,24,19,52,18.20
2017,08,24,19,53,18.20
2017,08,24,19,54,18.10
2017,08,24,19,55,18.10
2017,08,24,19,56,18.00
2017,08,24,19,57,17.90
2017,08,24,19,58,17.90
2017,08,24,19,59,17.90
2017,08,24,20,00,17.90
2017,08,24,20,01,17.90
2017,08,24,20,02,17.90
2017,08,24,20,03,17.90
2017,08,24,20,04,17.90
2017,08,24,20,05,17.90
2017,08,24,20,06,17.90
2017,08,24,20,07,17.90
2017,08,24,20,08,17.90
